www.pogodaiklimat.ru

Погода и климат >> Архив погоды >> Россия >> Краснодарский край >> Анапа


АРХИВ ПОГОДЫ в Анапе

Время (UTC), дата Ветер
(напр.,м/с)
 
Видим.   Явления Облачность Т
(С)
Тd
(С)
f
(%)
Тe
(С)
Тes
(С)
Комфортность P
(гПа)
Po
(гПа)
Тmin
(С)
Tmax
(С)
R
(мм)
R24
(мм)
S
(см)
00 16.01 СВ 4 10 км {ливн. осадки} 9/9 600 м
[Cb cap]
-3.3 -5.0 88 -9 -9 холодно 1028.8 1024.5
03 16.01 СВ 3 10 км 8/8 600 м
[Sc]
-3.3 -4.8 89 -9 -9 холодно 1027.8 1023.5 -3.8 0.3 <0.5
06 16.01 СВ 3 10 км 6/1 600 м
[Sc Ac trans]
-3.2 -5.0 87 -8 -8 холодно 1027.0 1022.7
09 16.01 СВ 3 10 км 9/4 600 м
[Sc Ac trans Ci sp]
+0.5 -2.4 81 -4 -3 по сезону 1025.1 1020.9
12 16.01 В 4 10 км 10/10 600 м
[Sc]
+2.9 -0.7 77 -2 -2 по сезону 1021.7 1017.5
15 16.01 СВ 5 10 км 10/4 600 м
[Cb cap Ac und]
+1.9 -0.8 82 -4 -4 прохладно 1018.3 1014.1 +3.0
18 16.01 СВ 5
{10}
4000 м слабый ливневой дождь 10/10 300 м
[Cb cap]
+2.1 +1.2 94 -4 -4 по сезону 1015.6 1011.4
21 16.01 Ю 12-18
{18}
10 км слабый ливневой дождь 10/10 300 м
[Cb cap]
+7.8 +5.7 87 +2 +2 по сезону 1012.5 1008.5
00 17.01 Ю 6
{18}
10 км в посл. час ливневой дождь 10/10 600 м
[Cb cap]
+8.0 +5.3 83 +4 +4 тепло 1011.6 1007.6
03 17.01 ЮЗ 9-11
{14}
10 км слабый ливневой дождь 10/10 300 м
[Cb cap]
+7.6 +5.5 87 +2 +2 тепло 1010.0 1005.9 +1.2 12
06 17.01 ЮЗ 6
{12}
10 км {ливн. осадки} 9/5 600 м
[Sc diur, vesp Ac As]
+7.8 +3.8 76 +4 +4 тепло 1010.1 1006.1
09 17.01 ЮЗ 6 10 км 9/6 600 м
[Sc Ac As]
+8.1 +4.2 76 +4 +4 тепло 1010.4 1006.4
12 17.01 Ю 7 10 км 9/9 600 м
[Cb cap]
+8.6 +4.4 75 +4 +4 тепло 1009.5 1005.5
15 17.01 Ю 8-12
{12}
10 км 9/9 600 м
[Sc]
+8.5 +4.9 78 +4 +4 тепло 1008.7 1004.7 +8.7 0.3
18 17.01 Ю 8-12
{13}
10 км 9/5 600 м
[Sc Ac As]
+8.9 +6.7 86 +4 +4 тепло 1008.2 1004.2
21 17.01 ЮВ 5-12
{13}
10 км 4/4 600 м
[Sc]
+9.2 +5.7 79 +6 +6 тепло 1006.8 1002.8
00 18.01 ЮВ 6-11
{13}
10 км 6/6 600 м
[Sc]
+9.3 +5.6 78 +6 +6 тепло 1005.3 1001.3
03 18.01 В 2
{11}
10 км 4/4 300 м
[Sc]
+9.1 +3.5 68 +8 +8 тепло 1002.4 998.5 +7.9
06 18.01 В 4-10
{11}
10 км 8/1 600 м
[Sc Ci sp]
+9.3 +4.6 72 +7 +7 тепло 1000.4 996.4
09 18.01 В 7-13
{15}
20 км 4/0
[Ci sp]
+12.2 +2.4 51 +10 +11 тепло 998.2 994.3
12 18.01 В 6-12
{14}
20 км 8/0
[Ci sp]
+13.3 +1.3 44 +11 +12 тепло 996.2 992.3
15 18.01 СВ 6-10
{13}
10 км 8/0
[Ac trans Ci sp]
+5.1 -0.3 68 0 0 по сезону 996.9 992.9 +13.3
18 18.01 В 7-11
{13}
10 км 9/0
[Ac trans Ci sp]
+2.8 -2.0 71 -3 -3 по сезону 998.2 994.2
21 18.01 В 6
{13}
10 км 8/0
[Ci sp]
+2.7 -2.1 71 -3 -3 по сезону 999.2 995.1
00 19.01 СВ 6-10
{10}
10 км 9/9 600 м
[Sc]
+2.3 -1.9 74 -3 -3 по сезону 1000.0 995.9
03 19.01 В 7-11
{12}
10 км слабый ливневой дождь 10/10 300 м
[Cb cap]
+2.1 -0.8 81 -4 -4 по сезону 1001.0 996.9 +1.8 1
06 19.01 В 5
{11}
4000 м слабый ливневой дождь 10/10 300 м
[Cb cap]
+2.9 +1.6 91 -3 -3 по сезону 1002.8 998.8
09 19.01 Ю 5
{10}
10 км {ливн. осадки} 10/10 600 м
[Cb cap]
+8.3 +5.5 83 +5 +5 тепло 1005.0 1001.0
12 19.01 ЮЗ 5 4000 м слабый ливневой дождь 10/10 300 м
[Cb cap]
+7.6 +6.3 91 +4 +4 тепло 1007.1 1003.1
15 19.01 З 3 4000 м слабый ливневой дождь 10/10 300 м
[Cb cap]
+5.4 +4.4 93 +2 +2 по сезону 1011.1 1007.0 +8.8 5
18 19.01 СЗ 3
{12}
10 км {ливн. осадки} 8/8 600 м
[Sc]
+3.8 +2.0 88 -0 -0 по сезону 1014.7 1010.6
21 19.01 В 2 10 км 6/6 600 м
[Sc]
+2.6 +0.2 84 -1 -1 по сезону 1017.0 1012.8
00 20.01 Ю 8-11
{11}
10 км 3/0
[Ci fib]
+6.8 +4.8 87 +2 +2 тепло 1017.4 1013.4
03 20.01 Ю 9-13
{13}
10 км 4/4 600 м
[Sc]
+8.4 +4.7 78 +4 +4 тепло 1017.3 1013.2 +2.1 0.3
06 20.01 Ю 10-15
{15}
10 км 10/4 600 м
[Sc Ci]
+8.8 +3.7 70 +4 +4 тепло 1017.9 1013.9
09 20.01 Ю 10-14
{17}
10 км 10/3 600 м
[Sc Ac und]
+9.2 +6.1 81 +4 +4 тепло 1017.5 1013.5
12 20.01 Ю 9-12
{15}
10 км 10/8 600 м
[Cb cap Ac und]
+9.3 +6.1 80 +5 +5 тепло 1016.1 1012.1
15 20.01 Ю 11-14
{15}
10 км 10/8 600 м
[Sc Ac und]
+9.1 +5.7 79 +4 +4 тепло 1015.3 1011.3 +9.4
18 20.01 Ю 10-14
{15}
10 км 10/8 600 м
[Sc Ac und]
+9.3 +6.9 85 +5 +5 тепло 1014.1 1010.1
21 20.01 Ю 10-12
{15}
4000 м дымка 10/9 300 м
[St Ci fib]
+9.5 +8.1 91 +5 +5 тепло 1012.7 1008.7
00 21.01 Ю 9-12
{13}
10 км 10/3 600 м
[Sc Ac und]
+9.4 +6.8 84 +5 +5 тепло 1011.2 1007.2
03 21.01 Ю 9-13
{13}
10 км слабый ливневой дождь 10/10 300 м
[Cb cap]
+8.7 +4.1 73 +4 +4 тепло 1009.8 1005.8 +8.7 0.3
06 21.01 Ю 11-16
{16}
4000 м слабый ливневой дождь 10/10 300 м
[Cb cap]
+9.3 +8.2 93 +4 +4 тепло 1007.9 1003.9 +8.3
09 21.01 З 7-19
{25}
10 км {ливн. осадки} 8/8 300 м
[Cb cap]
+8.6 +5.6 81 +4 +5 тепло 1009.8 1005.8
12 21.01 СЗ 3
{19}
10 км {ливн. осадки} 10/10 600 м
[Sc]
+4.1 +2.2 87 0 0 по сезону 1014.8 1010.7
15 21.01 С 1 10 км 10/10 600 м
[Sc]
+3.4 +1.1 85 +2 +2 по сезону 1017.6 1013.5 +10.2 4
18 21.01 СВ 3 10 км 3/3 600 м
[Sc]
+2.3 +0.6 89 -2 -2 по сезону 1016.0 1011.9
21 21.01 СВ 5 4000 м в посл. час ливневой дождь 10/10 300 м
[Cb cap]
+2.0 +0.9 92 -4 -4 по сезону 1014.5 1010.4
00 22.01 СВ 6-10
{11}
4000 м слабый ливневой дождь 10/10 300 м
[Cb cap]
+2.1 +0.8 91 -4 -4 по сезону 1011.6 1007.5
03 22.01 В 6-13
{13}
10 км {ливн. осадки} 10/10 600 м
[Cb cap]
+3.9 +1.3 83 -2 -2 по сезону 1008.4 1004.4 +2.0 2
06 22.01 СВ 7-11
{13}
10 км {ливн. осадки} 10/10 600 м
[Cb cap]
+4.3 +1.9 84 -1 -1 по сезону 1006.5 1002.4
09 22.01 СВ 7-12
{12}
10 км 10/10 600 м
[Sc]
+5.3 +2.3 81 0 0 по сезону 1004.9 1000.9
12 22.01 СВ 5
{12}
10 км 10/10 600 м
[Cb cap]
+6.4 +2.8 78 +2 +2 по сезону 1003.2 999.2
15 22.01 СВ 3 10 км 5/5 600 м
[Sc]
+7.2 +3.6 78 +4 +4 тепло 1003.3 999.3 +7.2
18 22.01 ЮВ 3 10 км 5/5 600 м
[Sc]
+11.7 +5.0 63 +10 +10 тепло 1002.9 999.0
21 22.01 Ю 7-11
{13}
10 км 8/8 600 м
[Sc]
+11.8 +5.5 65 +9 +9 тепло 1002.3 998.3

 

Местоположение метеостанции Анапа (Краснодарский край, Россия): широта 44.88 долгота 37.28 высота над уровнем моря 32 м.

В архиве по умолчанию представлена погода в Анапе за последнюю неделю. Архивные данные за месяц целиком и за предыдущие месяцы, начиная с января 2011 года, Вы можете получить, выбрав интересующий диапазон дат из раскрывающегося списка и нажав кнопку "Ввод!".

Внимание! Время в таблицах - всемирное. Для получения местного времени необходимо прибавить поправку, которая в Анапе равна 3 ч.

Смотрите также архив погоды в соседних городах и на ближайших метеорологических станциях:

Погода в Новороссийске (Краснодарский край, Россия) (48 км)
Погода в Темрюке (Краснодарский край, Россия) (50 км)
Погода в Крымске (Краснодарский край, Россия) (57 км)
Погода в Тамани (Краснодарский край, Россия) (58 км)
Погода в Геленджике (Краснодарский край, Россия) (72 км)
Погода в Опасном (Крым, Россия) (75 км)
Погода в Славянске-на-Кубани (Краснодарский край, Россия) (80 км)
Погода в Керчи (Крым, Россия) (86 км)
Погода в Джубге (Краснодарский край, Россия) (129 км)
Погода на Мысовом (Крым, Россия) (131 км)

Пояснения к столбцам:

Ветер - указаны скорость ветра в м/с - средняя за 10 мин, порывы в срок и между сроками (в фигурных скобках) и направление, откуда дует ветер: С - северный, СВ - северо-восточный, В - восточный, ЮВ - юго-восточный, Ю - южный, ЮЗ - юго-западный, З - западный, СЗ - северо-западный.
Видимость - горизонтальная дальность видимости в метрах или километрах. При видимости от 1 до 10 км при отсутствии осадков обычно наблюдается дымка, при ухудшении видимости до 1 км и менее - туман. В сухую погоду видимость может ухудшаться дымом, пылью или мглою.
Явления - указаны атмосферные явления, наблюдавшиеся в срок или в последний час перед сроком; фигурными скобками обозначены явления, наблюдавшиеся между сроками (за 1-3 часа до срока); квадратными скобками обозначены град или гололедные отложения с указанием их диаметра в мм.
Облачность - указаны через наклонную черту общая и нижняя облачность в баллах и высота нижней границы облаков в метрах; квадратными скобками обозначены формы облаков: Ci - перистые, Cs - перисто-слоистые, Cc - перисто-кучевые, Ac - высококучевые, As - высокослоистые, Sc - слоисто-кучевые, Ns - слоисто-дождевые, Cu - кучевые, Cb - кучево-дождевые. Подробнее классификацию облаков см. в Атласе облаков (PDF).
T - Температура воздуха - температура, измеренная на высоте 2 м над землей.
Td - Температура точки росы - температура, при понижении до которой содержащийся в воздухе водяной пар достигнет насыщения.
f - Относительная влажность воздуха - влажноcть воздуха, измеренная на высоте 2 м над землей.
Te - Эффективная температура - температура, которую ощущает одетый по сезону человек в тени. Характеристика душности погоды. При расчете учитывается влияние влажности воздуха и скорости ветра на теплоощущения человека.
Tes - Эффективная температура на солнце - температура, которую ощущает человек, с поправкой на солнечный нагрев. Характеристика знойности погоды. Зависит от высоты солнца над горизонтом, облачности и скорости ветра. Ночью, в пасмурную погоду, а также при ветре 12 м/с и более поправка равна нулю.
P - Атмосферное давление - приведенное к уровню моря атмосферное давление.
Po - Атмосферное давление - измеренное на уровне метеостанции атмосферное давление.
Tmin - Минимальная температура - минимум температуры воздуха на высоте 2 м над землей.
Tmax - Максимальная температура - максимум температуры воздуха на высоте 2 м над землей.
R - Количество осадков - Количество выпавших осадков за период времени, мм. При наведении курсора мыши на число - период времени, за который выпало указанное количество осадков.
R24 - Количество осадков - Количество выпавших осадков за 24 часа, мм.
S - Снежный покров - Высота снежного покрова, см. При наведении курсора мыши на число - состояние снежного покрова и степень покрытия местности в баллах.